Location: Unspecified
(52.4292°N, 19.3359°E)
Time: 23:49:05
(UTC+02:00)

SR - Pass Details

Date: 27 May 2024
Orbit: 580 x 858 km, 66.7° (Epoch: 12 June)

Event Time Altitude Azimuth Distance (km) Brightness Sun altitude
Rises 21:39:34 0° 303° (WNW) 3,015 ? -6.3°
Reaches altitude 10° 21:43:09 10° 330° (NNW) 2,040 ? -6.7°
Maximum altitude 21:45:23 13° 360° (N) 1,790 ? -6.9°
Drops below altitude 10° 21:47:35 10° 30° (NNE) 1,976 ? -7.1°
Sets 21:50:56 0° 58° (ENE) 2,841 ? -7.5°
